Regional Weather Roundup
Issued by NWS

Home | Current Version | Previous Version | Graphics & Text | Print | Product List | Glossary On
Versions: 1 2 3 4 5 6 7 8 9 10 11 12 13 14 15 16 17 18 19 20 21 22 23 24 25 26 27 28 29 30 31 32 33 34 35 36 37 38 39 40 41 42 43 44 45 46 47 48 49
000
ASUS45 KCYS 031210
RWRWY

WYOMING REGIONAL WEATHER ROUNDUP
NATIONAL WEATHER SERVICE CHEYENNE WY
600 AM MDT FRI JUL 03 2015

NOTE:  "FAIR" INDICATES FEW OR NO CLOUDS BELOW 12,000 FEET
WITH NO SIGNIFICANT WEATHER AND/OR OBSTRUCTIONS TO VISIBILITY.

WYZ001-031300-
YELLOWSTONE NATIONAL PARK

CITY           SKY/WX    TMP DP  RH WIND       PRES   REMARKS
LK YELLOWSTONE   N/A     43  39  86 CALM      30.32F
6HR MIN TEMP:  43; 6HR MAX TEMP:  51;

W YELLOWSTONE  NOT AVBL

$$
WYZ002>013-054>058-071-098>099-031300-
NORTHERN WYOMING

CITY           SKY/WX    TMP DP  RH WIND       PRES   REMARKS
JACKSON        MOCLDY    48  43  81 E3        30.24S
CODY           FAIR      63  48  59 SW7       30.13S
GREYBULL       FAIR      63  50  62 CALM      30.06S
6HR MIN TEMP:  62; 6HR MAX TEMP:  77;

WORLAND        FAIR      60  52  74 S9        30.08S
6HR MIN TEMP:  58; 6HR MAX TEMP:  72;

SHERIDAN       FAIR      52  48  86 CALM      30.08S
6HR MIN TEMP:  52; 6HR MAX TEMP:  60;

BUFFALO        FAIR      58  47  66 CALM      30.13S
6HR MIN TEMP:  56; 6HR MAX TEMP:  61;

GILLETTE       FAIR      56  52  86 S8        30.11S
6HR MIN TEMP:  55; 6HR MAX TEMP:  59;

HULETT         FAIR      55  52  88 S6        30.13S
NEWCASTLE      FAIR      59  52  77 CALM      30.15S

$$
WYZ014>020-022>026-101>103-031300-
CENTRAL WYOMING

CITY           SKY/WX    TMP DP  RH WIND       PRES   REMARKS
BIG PINEY      FAIR      51  42  71 E3        30.29S
6HR MIN TEMP:  49; 6HR MAX TEMP:  62;

PINEDALE       FAIR      46  43  87 NW3       30.30F
DUBOIS         FAIR      52  46  82 W7        30.30S
LANDER         FAIR      59  51  75 W8        30.19R
6HR MIN TEMP:  58; 6HR MAX TEMP:  67;

RIVERTON       FAIR      59  52  77 NW9       30.18R
6HR MIN TEMP:  58; 6HR MAX TEMP:  69;

CASPER         FAIR      52  49  89 CALM      30.17S
6HR MIN TEMP:  52; 6HR MAX TEMP:  65;

DOUGLAS        FAIR      55  53  93 E5        30.17S
6HR MIN TEMP:  55; 6HR MAX TEMP:  65; 6HR PCP:  0.08;


$$
WYZ021-027>030-104>119-031300-
SOUTHERN WYOMING

CITY           SKY/WX    TMP DP  RH WIND       PRES   REMARKS
EVANSTON       FAIR      57  43  59 SE7       30.26S
6HR MIN TEMP:  57; 6HR MAX TEMP:  71;

KEMMERER       FAIR      54  45  71 N10       30.28S
FORT BRIDGER   SUNNY     54  45  71 W5        30.29S
ROCK SPRINGS   FAIR      56  50  80 E7        30.25R
6HR MIN TEMP:  56; 6HR MAX TEMP:  63;

DIXON          FAIR      53  44  73 CALM      30.25R
RAWLINS        FAIR      53  51  93 CALM      30.26S
6HR MIN TEMP:  53; 6HR MAX TEMP:  56;

SARATOGA       FAIR      45  45 100 CALM      30.29R
LARAMIE        FAIR      46  45  96 SE7       30.29R
6HR MIN TEMP:  46; 6HR MAX TEMP:  56;

CHEYENNE       FAIR      55  52  89 N6        30.24R
6HR MIN TEMP:  55; 6HR MAX TEMP:  64;

TORRINGTON     FAIR      59  57  93 NE6       30.13S FOG
6HR MIN TEMP:  59; 6HR MAX TEMP:  65; 6HR PCP:  0.01;

PINE BLUFFS    CLOUDY    59  55  88 N9        30.22R

$$


USA.gov is the U.S. government's official web portal to all federal, state and local government web resources and services.